[[{"header":{"parameterUnit":"m.s-1","parameterCategory":1,"la1":30.2991,"la2":30.254,"lo1":-89.0895,"lo2":-89.0444,"dy":0.0017,"dx":0.0017,"nx":28,"ny":28,"refTime":"2026-02-02T03:00:00:Z","depth":0,"parameterNumber":2,"parameterNumberName":"U-component_of_WINDS"},"data":[0,0,0,0,0,0,0,0,0,0,0,0,0,0,0,0,0,0,0,0,0,0,0,0,0,0,0,0,0,0,0,0,0,0,0,0,0,0,0,0,0,0,0,0,0,0,0,0,0,0,0,0,0,0,0,0,0,0,2.543,2.5431,0,2.5482,2.5483,2.5483,2.5463,2.5462,2.5461,2.546,2.5515,2.5517,2.552,0,0,0,0,0,0,0,0,0,0,0,0,0,2.5316,2.5318,2.543,2.5431,2.5432,2.5482,2.5483,2.5483,2.5464,2.5462,2.5461,2.5459,2.5514,2.5517,2.552,0,0,0,0,0,0,0,0,0,0,0,0,0,2.5367,2.5319,2.543,2.5428,2.5428,2.5482,2.5483,2.5484,2.5464,2.5462,2.546,2.5459,2.5513,2.5517,2.552,2.558,0,0,2.5532,2.5534,0,0,0,0,0,0,0,0,2.5364,2.5371,2.5427,2.5428,2.5428,2.5464,2.5463,2.5516,2.5464,2.545,2.546,2.5458,2.5499,2.5504,2.5518,2.5583,2.5585,2.5533,2.5535,2.5537,2.5538,0,0,0,0,0,0,0,2.536,2.5369,2.5451,2.5428,2.5429,2.5425,2.543,2.5473,2.5484,2.5451,2.545,2.5456,2.5499,2.5514,2.5519,2.5586,2.5532,2.5536,2.5538,2.554,2.5704,2.5706,0,0,0,0,0,0,2.5356,2.5366,2.5449,2.5452,2.5391,2.5428,2.5434,2.5455,2.5484,2.5487,2.5458,2.5455,2.5509,2.5515,2.5521,2.5594,2.5536,2.554,2.5542,2.5702,2.5704,2.5706,0,0,0,0,0,0,2.5354,2.5364,2.5447,2.5409,2.5419,2.5432,2.5455,2.5457,2.5472,2.5489,2.5491,2.5471,2.5507,2.5516,2.5566,2.5595,2.5542,2.5545,2.5699,2.5703,2.5705,2.5739,0,0,0,0,0,0,2.5351,2.5363,2.5386,2.5409,2.5421,2.549,2.5457,2.5459,2.5478,2.5475,2.5502,2.5504,2.5507,2.556,2.557,2.56,2.5548,2.5697,2.5701,2.5704,2.5736,2.5743,2.575,0,0,0,0,0,2.5347,2.5393,2.5387,2.5397,2.5449,2.5492,2.5499,2.55,2.5481,2.5504,2.5515,2.5503,2.5591,2.5565,2.5576,2.5608,2.5695,2.57,2.5704,2.5733,2.5742,2.5749,0,0,0,0,0,0,2.5373,2.5396,2.5389,2.5445,2.5467,2.5489,2.5518,2.551,2.5538,2.5534,2.5535,2.5542,2.5594,2.5606,2.5577,2.5668,2.564,2.5647,2.5658,2.5667,2.5674,2.567,2.5552,0,0,0,0,0,2.5385,2.5418,2.5436,2.5484,2.5495,2.5505,2.5523,2.5522,2.5545,2.5555,2.5569,2.5592,2.5625,2.5647,2.5678,2.5737,2.5743,2.5764,2.5771,2.5777,2.5783,2.5816,2.5826,2.5722,2.5722,2.5721,0,0,2.5411,2.5428,2.5448,2.5489,2.5506,2.554,2.5512,2.5549,2.5575,2.556,2.5609,2.562,2.5646,2.5702,2.5727,2.5714,2.5813,2.5783,2.5787,2.579,2.5822,2.5832,2.5841,2.5725,2.5724,2.5724,0,0,2.5475,2.5491,2.5532,2.5549,2.5575,2.5581,2.5591,2.5615,2.5622,2.567,2.566,2.5691,2.5747,2.5766,2.5783,2.5856,2.5847,2.5866,2.5902,2.5935,2.5943,2.595,2.5977,2.5986,2.5872,2.5872,2.5872,0,2.5504,2.5554,2.5554,2.5592,2.5611,2.5599,2.5642,2.5659,2.5694,2.5707,2.5691,2.5762,2.5779,2.5839,2.5856,2.587,2.5883,2.5863,2.5942,2.5949,2.5956,2.5981,2.5991,2.5874,2.5874,2.5874,2.5873,0,2.5588,2.5624,2.5654,2.5687,2.571,2.575,2.5757,2.578,2.5777,2.5786,2.5836,2.5855,2.589,2.5904,2.5902,2.5965,2.5956,2.5941,2.5913,2.5968,2.5992,2.6001,2.5877,2.5876,2.5876,2.5875,0,0,2.5669,2.5703,2.5714,2.573,2.5758,2.5785,2.5826,2.5859,2.5879,2.5904,2.5938,2.5986,2.5973,2.5992,2.5993,2.6021,2.6078,2.6003,2.6004,2.6017,2.6148,2.6159,2.617,2.6072,2.6074,2.6075,2.6146,0,2.5736,2.5805,2.5807,2.5871,2.5904,2.5894,2.5929,2.5951,2.596,2.599,2.6,2.6034,2.6014,2.6025,2.6053,2.6065,2.6104,2.606,2.6104,2.6106,2.6098,2.6183,2.6194,2.626,2.6155,2.6157,2.6158,0,2.5822,2.585,2.5917,2.5941,2.5955,2.5986,2.6018,2.6046,2.6071,2.6076,2.6098,2.6094,2.6136,2.6107,2.6165,2.6134,2.6153,2.6162,2.6164,2.6168,2.6135,2.6189,2.6281,2.6291,2.6173,2.6171,2.617,0,2.5875,2.5929,2.5976,2.599,2.6019,2.6041,2.6055,2.6077,2.6098,2.6126,2.6139,2.6172,2.619,2.6216,2.6221,2.6199,2.628,2.6251,2.6285,2.6285,2.6303,2.6301,2.6399,2.6314,2.6314,2.6314,2.6314,0,2.5949,2.5991,2.6001,2.603,2.6077,2.6079,2.6125,2.6137,2.6157,2.6189,2.6183,2.6213,2.6218,2.625,2.6255,2.6302,2.631,2.6316,2.6317,2.6316,2.6316,2.6329,2.6324,2.6317,2.6316,2.6316,2.6315,0,2.6016,2.6024,2.6075,2.6099,2.6106,2.6139,2.616,2.6188,2.6197,2.6237,2.6247,2.626,2.6297,2.6305,2.6349,2.6353,2.6409,2.6406,2.6401,2.6401,2.6435,2.6432,2.6544,2.6559,2.6464,2.6465,2.6466,0,2.6062,2.6094,2.6122,2.6142,2.6157,2.619,2.6211,2.6215,2.6237,2.6268,2.6293,2.6329,2.6358,2.6418,2.6432,2.6466,2.6463,2.65,2.6468,2.6467,2.6464,2.6462,2.6466,2.6506,2.6507,2.6508,2.6509,0,2.6144,2.6147,2.6177,2.621,2.6235,2.6261,2.6285,2.6302,2.631,2.6335,2.6373,2.6396,2.6441,2.6477,2.6511,2.6525,2.6519,2.6519,2.6529,2.6529,2.6525,2.6528,2.6418,2.6516,2.6515,2.6515,2.6514,2.6514,2.6203,2.6231,2.6254,2.6289,2.6308,2.6331,2.6359,2.6371,2.6402,2.6439,2.644,2.6481,2.6506,2.6551,2.6567,2.66,2.6589,2.6603,2.6606,2.661,2.6613,2.652,2.6606,2.6606,2.6606,2.6606,2.6606,0,2.6284,2.6299,2.6331,2.6365,2.6393,2.6384,2.6411,2.6434,2.647,2.6494,2.6523,2.6567,2.6602,2.6619,2.6655,2.6678,2.6675,2.6687,2.6685,2.6689,2.6621,2.6609,2.6688,2.6688,2.6688,2.6688,2.6688,2.6688,2.633,2.6377,2.6383,2.644,2.6455,2.6495,2.6511,2.6533,2.6552,2.6601,2.663,2.6641,2.6662,2.6699,2.6732,2.6736,2.6749,2.6762,2.6765,2.6702,2.6693,2.6685,2.6674,2.6765,2.6765,2.683,2.683,2.6831]},{"header":{"parameterUnit":"m.s-1","parameterCategory":1,"la1":30.2991,"la2":30.254,"lo1":-89.0895,"lo2":-89.0444,"dy":0.0017,"dx":0.0017,"nx":28,"ny":28,"refTime":"2026-02-02T03:00:00:Z","depth":0,"parameterNumber":3,"parameterNumberName":"V-component_of_WINDS"},"data":[0,0,0,0,0,0,0,0,0,0,0,0,0,0,0,0,0,0,0,0,0,0,0,0,0,0,0,0,0,0,0,0,0,0,0,0,0,0,0,0,0,0,0,0,0,0,0,0,0,0,0,0,0,0,0,0,0,0,5.8802,5.8804,0,5.8966,5.8968,5.897,5.8967,5.8965,5.8963,5.8961,5.9125,5.9131,5.9138,0,0,0,0,0,0,0,0,0,0,0,0,0,5.8483,5.8488,5.8802,5.8804,5.8806,5.8966,5.8968,5.897,5.8968,5.8965,5.8962,5.896,5.9123,5.9131,5.9138,0,0,0,0,0,0,0,0,0,0,0,0,0,5.8631,5.849,5.8801,5.8824,5.8827,5.8965,5.8968,5.8971,5.8968,5.8965,5.8961,5.8958,5.912,5.913,5.9139,5.9265,0,0,5.9169,5.9173,0,0,0,0,0,0,0,0,5.8623,5.8643,5.8818,5.8822,5.8827,5.8943,5.8916,5.9069,5.8969,5.8915,5.8961,5.8957,5.9067,5.9081,5.9119,5.9272,5.9279,5.917,5.9175,5.918,5.9182,0,0,0,0,0,0,0,5.8613,5.8636,5.8867,5.8821,5.8826,5.8825,5.8842,5.8945,5.9007,5.8919,5.8919,5.8939,5.9068,5.9109,5.9122,5.9282,5.9169,5.9178,5.9184,5.9188,5.9548,5.9551,0,0,0,0,0,0,5.8598,5.8627,5.8861,5.8871,5.8715,5.8833,5.8853,5.8909,5.9006,5.9018,5.8942,5.8938,5.9094,5.9111,5.9128,5.9283,5.918,5.9189,5.9194,5.9544,5.9549,5.9553,0,0,0,0,0,0,5.8591,5.8619,5.8855,5.875,5.878,5.8842,5.8905,5.8914,5.8955,5.9023,5.9034,5.8972,5.9093,5.9115,5.9231,5.9288,5.9193,5.9202,5.9539,5.9545,5.9551,5.9592,0,0,0,0,0,0,5.8582,5.8617,5.8665,5.8751,5.8785,5.8956,5.8909,5.8919,5.8972,5.8969,5.9055,5.9065,5.9092,5.9217,5.9241,5.93,5.9209,5.9535,5.9542,5.9549,5.9585,5.9598,5.9609,0,0,0,0,0,5.8571,5.8669,5.8668,5.8696,5.8848,5.8959,5.8979,5.9008,5.8976,5.9026,5.907,5.9063,5.9278,5.9229,5.9256,5.9318,5.9531,5.954,5.9548,5.958,5.9595,5.9608,0,0,0,0,0,0,5.8587,5.8681,5.868,5.881,5.8877,5.8959,5.9022,5.9023,5.91,5.9094,5.9125,5.9145,5.9262,5.9301,5.9245,5.9445,5.94,5.9415,5.9416,5.9431,5.9442,5.943,5.9217,0,0,0,0,0,5.8606,5.869,5.8767,5.8873,5.8907,5.8959,5.9008,5.9025,5.9096,5.9124,5.9176,5.9244,5.9327,5.938,5.946,5.9591,5.961,5.9647,5.9659,5.9668,5.968,5.9753,5.9771,5.9581,5.9581,5.958,0,0,5.8645,5.8707,5.8758,5.8878,5.8932,5.9018,5.8983,5.9074,5.9138,5.9137,5.9252,5.9292,5.937,5.9494,5.9551,5.9531,5.9737,5.9679,5.9686,5.9693,5.9764,5.9782,5.9798,5.9586,5.9585,5.9584,0,0,5.8761,5.8816,5.8912,5.8967,5.905,5.9084,5.9107,5.919,5.9217,5.9333,5.9334,5.941,5.9552,5.9607,5.9654,5.9793,5.979,5.9818,5.9879,5.995,5.9965,5.9978,6.0029,6.0047,5.9829,5.983,5.983,0,5.8799,5.893,5.896,5.9054,5.9107,5.9111,5.9209,5.926,5.9364,5.9401,5.9376,5.9556,5.9608,5.9746,5.978,5.9818,5.9845,5.9809,5.996,5.9974,5.9987,6.0036,6.0055,5.9833,5.9832,5.9832,5.9832,0,5.8974,5.9064,5.9131,5.9234,5.9295,5.9389,5.9433,5.9491,5.9502,5.9539,5.9656,5.9719,5.9813,5.9847,5.9858,5.9987,5.9972,5.9954,5.9909,6.0008,6.0054,6.0073,5.9837,5.9836,5.9835,5.9834,0,0,5.9104,5.9224,5.9248,5.9296,5.9388,5.9458,5.9553,5.9646,5.9696,5.9767,5.9847,5.9968,5.9952,6.0005,6.0023,6.0085,6.0193,6.0059,6.0062,6.0083,6.034,6.0355,6.0376,6.0191,6.0194,6.0197,6.0334,0,5.9231,5.9402,5.9432,5.958,5.9665,5.9671,5.9753,5.9819,5.9855,5.9931,5.9971,6.0057,6.0028,6.0061,6.0122,6.0167,6.0245,6.0157,6.0266,6.027,6.0248,6.04,6.0416,6.0542,6.0353,6.0356,6.0358,0,5.9402,5.9481,5.9638,5.9721,5.9757,5.9831,5.992,5.9993,6.0067,6.0089,6.0149,6.016,6.0258,6.0209,6.0345,6.0284,6.033,6.0359,6.0364,6.0377,6.0321,6.0418,6.0583,6.0602,6.0386,6.0384,6.0382,0,5.9484,5.9628,5.9742,5.9782,5.9881,5.9933,5.9976,6.0047,6.0102,6.0179,6.0215,6.0301,6.0349,6.0415,6.0449,6.041,6.0583,6.0536,6.0604,6.0604,6.0642,6.0639,6.0818,6.0669,6.0669,6.0668,6.0668,0,5.9623,5.9719,5.978,5.985,5.9958,5.9992,6.0098,6.014,6.0203,6.0281,6.029,6.0363,6.0403,6.0481,6.0507,6.0617,6.0637,6.0658,6.0664,6.0658,6.0656,6.069,6.0683,6.0673,6.0672,6.0671,6.067,0,5.9733,5.9777,5.9902,5.9986,6.001,6.0086,6.0157,6.0225,6.0262,6.036,6.0385,6.0442,6.0535,6.0575,6.0688,6.0706,6.0832,6.083,6.0807,6.081,6.0877,6.087,6.1085,6.1115,6.0945,6.0946,6.0947,0,5.9819,5.9894,5.9987,6.0041,6.0087,6.0172,6.0229,6.0265,6.0323,6.0414,6.0471,6.0564,6.0641,6.0789,6.0839,6.0926,6.0928,6.0998,6.0941,6.0934,6.0931,6.0927,6.0936,6.1008,6.101,6.1011,6.1012,0,5.9969,5.9988,6.007,6.0161,6.0228,6.03,6.0371,6.0414,6.0461,6.0526,6.0622,6.0681,6.0798,6.0891,6.0982,6.1025,6.1027,6.1029,6.105,6.1046,6.103,6.1041,6.0837,6.1025,6.1023,6.1022,6.1022,6.1021,6.0071,6.0139,6.0216,6.0307,6.0364,6.043,6.0499,6.0545,6.0626,6.0726,6.0741,6.0844,6.0917,6.1039,6.1086,6.1166,6.1149,6.1179,6.1187,6.1194,6.1199,6.1016,6.1183,6.1182,6.1182,6.1182,6.1182,0,6.0223,6.0273,6.0357,6.0457,6.0529,6.0525,6.0604,6.0664,6.0755,6.0823,6.0899,6.101,6.11,6.1159,6.125,6.1303,6.1306,6.1326,6.1323,6.1333,6.1208,6.1182,6.1322,6.1322,6.1322,6.1322,6.1322,6.1322,6.031,6.0425,6.0453,6.0596,6.0645,6.0748,6.0793,6.0854,6.0909,6.1033,6.1109,6.1147,6.1212,6.1308,6.1391,6.1406,6.1439,6.146,6.1474,6.1356,6.1342,6.1328,6.1304,6.1467,6.1467,6.1593,6.1594,6.1595]}]]